Regional Weather Roundup
Issued by NWS Green Bay, WI

Home | Current Version | Previous Version | Graphics & Text | Print | Product List | Glossary Off
Versions: 1 2 3 4 5 6 7 8 9 10 11 12 13 14 15 16 17 18 19 20 21 22 23 24 25 26 27 28 29 30 31 32 33 34 35 36 37 38 39 40 41 42 43 44 45 46 47 48 49 50

000
ASUS43 KGRB 221810
RWRGRB

NORTH-CENTRAL AND NORTHEAST WISCONSIN REGIONAL WEATHER ROUNDUP
NATIONAL WEATHER SERVICE GREEN BAY WI
100 PM CDT MON SEP 22 2014

WIZ005-009-010>012-018-019-221900-
NORTH CENTRAL WISCONSIN

CITY           SKY/WX    TMP DP  RH WIND       PRES   REMARKS
IRONWOOD       PTSUNNY   63  50  63 W13       30.15F
MANITOWISH WTR MOSUNNY   62  48  62 W9        30.19S
ARBOR VITAE    MOSUNNY   62  49  61 W13       30.20S
EAGLE RIVER    PTSUNNY   60  46  59 W5        30.18S
LAND O LAKES   MOSUNNY   61  47  58 W8G16     30.18F
RHINELANDER    MOSUNNY   63  47  55 W13       30.21S
PHILLIPS       MOSUNNY   59  48  65 W7        30.21S
ANTIGO         PTSUNNY   63  48  59 W10G18    30.21F
TOMAHAWK       PTSUNNY   61  46  58 W12       30.21F
MERRILL        CLOUDY    62  49  62 W12       30.22S
$$

WIZ013-073-221900-
NORTHEAST WISCONSIN

CITY           SKY/WX    TMP DP  RH WIND       PRES   REMARKS
IRON MOUNTAIN  MOSUNNY   65  46  50 W15G21    30.15S
MARINETTE      MOSUNNY   63  48  59 W7        30.17F
OCONTO         PTSUNNY   66  47  51 W10G17    30.19F
$$

WIZ017-030-035>037-045-221900-
CENTRAL WISCONSIN

CITY           SKY/WX    TMP DP  RH WIND       PRES   REMARKS
MEDFORD        CLOUDY    59  48  67 W9        30.22F
WAUSAU         CLOUDY    63  46  54 W17       30.21F
MOSINEE        CLOUDY    63  48  59 W9G18     30.24F
MARSHFIELD     PTSUNNY   64  49  57 NW10      30.23F
WISC RAPIDS    CLOUDY    65  47  52 W8        30.25F
STEVENS POINT  CLOUDY    61  46  56 W8        30.23F
WAUPACA        MOSUNNY   68  46  45 W9        30.23F
SHAWANO        CLOUDY    68  47  47 W10G18    30.21F
CLINTONVILLE   CLOUDY    64  45  48 W10       30.21F
$$

WIZ038-039-048-051-221900-
FOX VALLEY

CITY           SKY/WX    TMP DP  RH WIND       PRES   REMARKS
NWS GREEN BAY  MOSUNNY   66  45  46 W10       30.21F
APPLETON       PTSUNNY   64  45  48 W8        30.23F
OSHKOSH        MOSUNNY   66  47  50 VRB3      30.23F
FOND DU LAC    SUNNY     65  45  48 W9        30.24F
$$

WIZ022-050-052-221900-
EAST CENTRAL WISCONSIN

CITY           SKY/WX    TMP DP  RH WIND       PRES   REMARKS
STURGEON BAY   MOSUNNY   63  46  55 W8        30.20F
MANITOWOC      MOSUNNY   64  47  53 NW10      30.22F
SHEBOYGAN      SUNNY     65  44  46 W10       30.23F
$$

LMZ563-521-522-541>543-221900-
LAKESHORE

STATION/POSITION TIME  TEMP    WIND        PRES    VSBY  WAVE
                       AIR SEA DIR/SP/G                  HT/PER
                 (UTC) (F)     (DEG/KT/KT) (MB)    (MI)  (FT/S)
SHEBOYGAN LKSHOR 1800   62 53  300/  6/ 10 1024.0F
KEWAUNEE LKSHORE 1800   64     260/  5/  9 1022.1S
NORTHPORT PIER   1800   61     260/  6/ 12 1021.3F
N MID LAKE BUOY  1800   54 57  230/ 16/ 17 1021.4F         2/ 3
S GREEN BAY BUOY 1800   60     VRB 12/ 14  1023.2F
STURGEON BAY CG  1800   64 52  310/  7     1022.6      6   1
CHAMBERS ISLAND  1800   58     190/  8/ 11 1022.4S
MENOMINEE LKSHOR 1800   62     230/  7/ 11 1022.4F
$$



USA.gov is the U.S. government's official web portal to all federal, state and local government web resources and services.